| time (UTC) | temp F | wind direction | speed MPH | gust MPH | rain 1hr in | rain 24hr in | rain mn in | humidity % | barometer mb |
| 20260508011014 | 93 | 336 | 1.0 | 8.0 | 0.00 | 0.00 | 0.00 | 9 | 1005.8 |
| 20260508010514 | 93 | 244 | 2.0 | 8.0 | 0.00 | 0.00 | 0.00 | 10 | 1005.8 |
| 20260508010013 | 93 | 192 | 2.0 | 8.0 | 0.00 | 0.00 | 0.00 | 10 | 1005.9 |
| 20260508005512 | 94 | 243 | 3.0 | 8.0 | 0.00 | 0.00 | 0.00 | 9 | 1005.9 |
| 20260508005013 | 94 | 207 | 2.0 | 7.0 | 0.00 | 0.00 | 0.00 | 9 | 1005.8 |
| 20260508004513 | 95 | 284 | 3.0 | 6.0 | 0.00 | 0.00 | 0.00 | 9 | 1005.7 |
| 20260508004013 | 94 | 156 | 1.0 | 7.0 | 0.00 | 0.00 | 0.00 | 10 | 1005.7 |
| 20260508003514 | 94 | 199 | 2.0 | 8.0 | 0.00 | 0.00 | 0.00 | 10 | 1005.7 |
| 20260508003012 | 95 | 223 | 3.0 | 8.0 | 0.00 | 0.00 | 0.00 | 10 | 1005.8 |
| 20260508002511 | 95 | 220 | 2.0 | 11.0 | 0.00 | 0.00 | 0.00 | 9 | 1005.8 |
| 20260508002011 | 95 | 248 | 3.0 | 11.0 | 0.00 | 0.00 | 0.00 | 9 | 1005.8 |
| 20260508001529 | 95 | 267 | 2.0 | 6.0 | 0.00 | 0.00 | 0.00 | 10 | 1005.8 |
| 20260508001012 | 95 | 169 | 2.0 | 8.0 | 0.00 | 0.00 | 0.00 | 10 | 1005.8 |
| 20260508000511 | 95 | 242 | 1.0 | 8.0 | 0.00 | 0.00 | 0.00 | 9 | 1005.8 |
| 20260508000009 | 95 | 271 | 4.0 | 8.0 | 0.00 | 0.00 | 0.00 | 9 | 1005.9 |
| 20260507235510 | 95 | 286 | 1.0 | 12.0 | 0.00 | 0.00 | 0.00 | 10 | 1005.9 |
| 20260507235007 | 95 | 222 | 5.0 | 12.0 | 0.00 | 0.00 | 0.00 | 10 | 1006.0 |
| 20260507234509 | 95 | 260 | 1.0 | 11.0 | 0.00 | 0.00 | 0.00 | 10 | 1006.0 |
| 20260507234008 | 95 | 296 | 4.0 | 11.0 | 0.00 | 0.00 | 0.00 | 9 | 1006.1 |
| 20260507233507 | 95 | 236 | 1.0 | 8.0 | 0.00 | 0.00 | 0.00 | 10 | 1006.0 |
| 20260507233018 | 95 | 237 | 2.0 | 8.0 | 0.00 | 0.00 | 0.00 | 9 | 1006.1 |
| 20260507232505 | 95 | 320 | 3.0 | 9.0 | 0.00 | 0.00 | 0.00 | 9 | 1006.2 |
| 20260507232006 | 95 | 226 | 1.0 | 9.0 | 0.00 | 0.00 | 0.00 | 10 | 1006.2 |
| 20260507231511 | 95 | 250 | 3.0 | 9.0 | 0.00 | 0.00 | 0.00 | 10 | 1006.2 |
| 20260507231006 | 96 | 273 | 2.0 | 9.0 | 0.00 | 0.00 | 0.00 | 10 | 1006.1 |
| 20260507230506 | 95 | 213 | 3.0 | 9.0 | 0.00 | 0.00 | 0.00 | 9 | 1006.2 |
| 20260507230013 | 96 | 254 | 4.0 | 8.0 | 0.00 | 0.00 | 0.00 | 9 | 1006.3 |
| 20260507225502 | 97 | 257 | 3.0 | 8.0 | 0.00 | 0.00 | 0.00 | 9 | 1006.4 |
| 20260507225004 | 97 | 165 | 3.0 | 8.0 | 0.00 | 0.00 | 0.00 | 9 | 1006.4 |
| 20260507224502 | 97 | 155 | 2.0 | 7.0 | 0.00 | 0.00 | 0.00 | 9 | 1006.4 |
| 20260507224001 | 96 | 153 | 0.0 | 6.0 | 0.00 | 0.00 | 0.00 | 10 | 1006.5 |
| 20260507223602 | 96 | 132 | 1.0 | 6.0 | 0.00 | 0.00 | 0.00 | 9 | 1006.6 |
| 20260507223100 | 95 | 304 | 2.0 | 6.0 | 0.00 | 0.00 | 0.00 | 9 | 1006.7 |
| 20260507222559 | 95 | 248 | 1.0 | 7.0 | 0.00 | 0.00 | 0.00 | 10 | 1006.7 |
| 20260507222058 | 95 | 287 | 2.0 | 9.0 | 0.00 | 0.00 | 0.00 | 10 | 1006.8 |
| 20260507221558 | 95 | 249 | 3.0 | 9.0 | 0.00 | 0.00 | 0.00 | 11 | 1006.9 |
| 20260507221058 | 95 | 271 | 3.0 | 8.0 | 0.00 | 0.00 | 0.00 | 9 | 1006.9 |
| 20260507220557 | 96 | 276 | 2.0 | 8.0 | 0.00 | 0.00 | 0.00 | 10 | 1007.0 |
| 20260507220056 | 96 | 256 | 4.0 | 8.0 | 0.00 | 0.00 | 0.00 | 10 | 1007.2 |
| 20260507215555 | 96 | 231 | 2.0 | 11.0 | 0.00 | 0.00 | 0.00 | 10 | 1007.3 |
| 20260507215055 | 97 | 313 | 2.0 | 9.0 | 0.00 | 0.00 | 0.00 | 10 | 1007.3 |
| 20260507214556 | 96 | 257 | 2.0 | 7.0 | 0.00 | 0.00 | 0.00 | 10 | 1007.3 |
| 20260507214053 | 96 | 95 | 3.0 | 7.0 | 0.00 | 0.00 | 0.00 | 9 | 1007.4 |
| 20260507213551 | 96 | 148 | 3.0 | 7.0 | 0.00 | 0.00 | 0.00 | 9 | 1007.5 |
| 20260507213057 | 96 | 126 | 2.0 | 7.0 | 0.00 | 0.00 | 0.00 | 9 | 1007.6 |
| 20260507212550 | 96 | 217 | 2.0 | 7.0 | 0.00 | 0.00 | 0.00 | 9 | 1007.7 |
| 20260507212048 | 95 | 287 | 2.0 | 5.0 | 0.00 | 0.00 | 0.00 | 9 | 1007.7 |
| 20260507211553 | 94 | 143 | 0.0 | 4.0 | 0.00 | 0.00 | 0.00 | 10 | 1007.8 |
| 20260507211047 | 94 | 159 | 1.0 | 5.0 | 0.00 | 0.00 | 0.00 | 10 | 1008.0 |
| 20260507210546 | 94 | 360 | 2.0 | 5.0 | 0.00 | 0.00 | 0.00 | 13 | 1008.0 |
| 20260507210046 | 95 | 288 | 2.0 | 5.0 | 0.00 | 0.00 | 0.00 | 11 | 1008.1 |
| 20260507205544 | 95 | 67 | 1.0 | 5.0 | 0.00 | 0.00 | 0.00 | 9 | 1008.2 |
| 20260507205044 | 94 | 214 | 1.0 | 5.0 | 0.00 | 0.00 | 0.00 | 11 | 1008.3 |
| 20260507204543 | 94 | 52 | 0.0 | 3.0 | 0.00 | 0.00 | 0.00 | 11 | 1008.4 |
| 20260507204042 | 94 | 338 | 0.0 | 8.0 | 0.00 | 0.00 | 0.00 | 10 | 1008.4 |
| 20260507203542 | 94 | 190 | 1.0 | 5.0 | 0.00 | 0.00 | 0.00 | 9 | 1008.5 |
| 20260507203042 | 94 | 269 | 1.0 | 5.0 | 0.00 | 0.00 | 0.00 | 9 | 1008.5 |
| 20260507202540 | 94 | 250 | 2.0 | 5.0 | 0.00 | 0.00 | 0.00 | 9 | 1008.5 |
| 20260507202038 | 93 | 134 | 1.0 | 6.0 | 0.00 | 0.00 | 0.00 | 10 | 1008.6 |
| 20260507201546 | 93 | 232 | 2.0 | 6.0 | 0.00 | 0.00 | 0.00 | 10 | 1008.7 |
| 20260507201039 | 93 | 166 | 1.0 | 6.0 | 0.00 | 0.00 | 0.00 | 10 | 1008.8 |
| 20260507200536 | 93 | 312 | 1.0 | 5.0 | 0.00 | 0.00 | 0.00 | 10 | 1008.9 |
| 20260507200042 | 93 | 195 | 1.0 | 7.0 | 0.00 | 0.00 | 0.00 | 10 | 1008.9 |
| 20260507195533 | 93 | 243 | 1.0 | 6.0 | 0.00 | 0.00 | 0.00 | 10 | 1009.0 |
| 20260507195033 | 93 | 209 | 2.0 | 5.0 | 0.00 | 0.00 | 0.00 | 11 | 1009.1 |
| 20260507194533 | 93 | 210 | 2.0 | 5.0 | 0.00 | 0.00 | 0.00 | 10 | 1009.2 |
| 20260507194031 | 92 | 244 | 1.0 | 7.0 | 0.00 | 0.00 | 0.00 | 11 | 1009.2 |
| 20260507193530 | 92 | 82 | 2.0 | 7.0 | 0.00 | 0.00 | 0.00 | 10 | 1009.3 |
| 20260507193038 | 92 | 276 | 1.0 | 5.0 | 0.00 | 0.00 | 0.00 | 10 | 1009.4 |
| 20260507192529 | 92 | 260 | 1.0 | 5.0 | 0.00 | 0.00 | 0.00 | 10 | 1009.5 |
| 20260507192027 | 92 | 134 | 1.0 | 5.0 | 0.00 | 0.00 | 0.00 | 10 | 1009.7 |
| 20260507191527 | 92 | 169 | 1.0 | 5.0 | 0.00 | 0.00 | 0.00 | 11 | 1009.8 |
| 20260507191024 | 91 | 126 | 1.0 | 6.0 | 0.00 | 0.00 | 0.00 | 11 | 1009.9 |
| 20260507190524 | 90 | 54 | 1.0 | 6.0 | 0.00 | 0.00 | 0.00 | 10 | 1009.9 |
| 20260507190025 | 90 | 258 | 1.0 | 5.0 | 0.00 | 0.00 | 0.00 | 10 | 1010.0 |